This is the latest recevied weather packets stored in our database for station/object N5AJY. If no packets are shown the sender has not sent any weather packets the latest 1 day(s).
| Time | Temp. | Humidity | Pressure | Rain* | Wind** | Luminosity | Snow |
|---|---|---|---|---|---|---|---|
| 1777998714 | 14.44° C | 86% | 1001.3 hPa | 0 mm | 0 m/s | - | - |
| 1777998413 | 14.44° C | 86% | 1001.3 hPa | 0 mm | 0 m/s | - | - |
| 1777998114 | 15° C | 86% | 1001.2 hPa | 0 mm | 0 m/s | - | - |
| 1777997813 | 15° C | 86% | 1001.1 hPa | 0 mm | 0 m/s | - | - |
| 1777997514 | 15° C | 86% | 1001.1 hPa | 0 mm | 0 m/s | - | - |
| 1777997213 | 15° C | 86% | 1001 hPa | 0 mm | 0 m/s | - | - |
| 1777996914 | 15.56° C | 87% | 1001 hPa | 0 mm | 0 m/s | - | - |
| 1777996614 | 15.56° C | 86% | 1000.9 hPa | 0 mm | 0 m/s | - | - |
| 1777996315 | 15.56° C | 86% | 1000.7 hPa | 0 mm | 0 m/s | - | - |
| 1777996013 | 15.56° C | 86% | 1000.6 hPa | 0 mm | 0 m/s | - | - |
| 1777995715 | 16.11° C | 85% | 1000.7 hPa | 0 mm | 0 m/s | - | - |
| 1777995414 | 16.67° C | 85% | 1000.6 hPa | 0 mm | 0 m/s | - | - |
| 1777995113 | 16.67° C | 85% | 1000.6 hPa | 0 mm | 0 m/s | - | - |
| 1777994815 | 17.78° C | 84% | 1000.5 hPa | 0 mm | 0 m/s | - | - |
| 1777994514 | 18.33° C | 85% | 1000.3 hPa | 0 mm | 0 m/s | - | - |
| 1777994215 | 18.33° C | 86% | 1000.3 hPa | 0 mm | 0 m/s | - | - |
| 1777993914 | 18.33° C | 86% | 1000.3 hPa | 0 mm | 0 m/s | - | - |
| 1777993615 | 18.89° C | 86% | 1000.3 hPa | 0 mm | 0 m/s | - | - |
| 1777993314 | 18.89° C | 85% | 1000.2 hPa | 0 mm | 0 m/s | - | - |
| 1777993015 | 18.89° C | 85% | 1000 hPa | 0 mm | 0 m/s | - | - |
| 1777992714 | 18.89° C | 85% | 999.7 hPa | 0 mm | 0 m/s | - | - |
| 1777992413 | 18.89° C | 84% | 999.6 hPa | 0 mm | 0 m/s | - | - |
| 1777992114 | 18.89° C | 84% | 999.6 hPa | 0 mm | 0 m/s | - | - |
| 1777991814 | 19.44° C | 84% | 999.5 hPa | 0 mm | 0 m/s | - | - |
| 1777991515 | 18.89° C | 84% | 999.5 hPa | 0 mm | 0 m/s | - | - |
* Rain latest hour (hover to see other rain measurements)
** Current wind speed in m/s (hover to see current wind gust speed)